OPS 5712 (P/L 160)

Satellite information

Favourite Embed

Satellite Type and Status

PAYLOADIN ORBIT

Key statistics

Satellite OPS 5712 (P/L 160) at a glance.

Uptime

21326

Days in orbit

Revolutions

≈ 14.7

Per day

Orbit

LEO

Low Earth Orbit

Inclination

69.9

Latest

Satellite identification and parameters

Extended collection of information and parameters for OPS 5712 (P/L 160).

Object identification

Identified? True

Debris? False

Object name: OPS 5712 (P/L 160)

International designator: 1967-053A

Object number (NORAD): 2826

Object ID (CCSDS): 2826

Country: UNITED STATES OF AMERICA (US)

Current information (Y/N): Y

RCS size: MEDIUM

Orbital parameters

Period: 97.775 minutes

Inclination: 69.9175 deg

SMA: 7030.374 km

Apoapsis: 655.648 km

Periapsis: 648.831 km

RAAN: 267.4544 deg

Eccentricy: 0.00048479

Argument of periapsis: 317.4806 deg

Mean anomaly: 42.5963 deg

Mean motion: 14.72770514 rev/day

Mean motion (dot): 0.00020198 rev/day2

B* drag term: 0.0031584533 1/REarth

Two-line elements (TLE)

Creation date: Oct. 19, 2025, 2:20 a.m.

Reference frame: TEME

Reference center: EARTH

Epoch: Oct. 18, 2025, 11:47 p.m. UTC

TLE line 0: 0 OPS 5712 (P/L 160)

TLE line 1: 1 02826U 67053A 25291.99133491 .00020198 00000-0 31585-2 0 9991

TLE line 2: 2 02826 69.9175 267.4544 0004848 317.4806 42.5963 14.72770514 30653

Live tracking on map

Real-time ground track for satellite OPS 5712 (P/L 160).

In-orbit conjunctions

There are no conjunctions computed for OPS 5712 (P/L 160), at the moment. Check back to stay up to date, as we update our databases every day.

Go to all conjunctions

Associated space launch

Poppy was the follow-on ELINT system, which succeeded the Grab ELINT satellite system.

OPS 5712 (P/L 160) was lifted into orbit during the mission ‘Thor SLV-2 Agena D | Poppy 7A,B,C,D’, on board a Thor SLV-2 Agena D space rocket.

The launch took place on May 31, 1967, 9:30 a.m. from Space Launch Complex 2W.

For more information about the launch, click the button.

Launch to space Thor SLV-2 Agena D | Poppy 7A,B,C,D
Thor SLV-2 Agena D | Poppy 7A,B,C,D

Agency: N/A

Status: Launch Successful

Launch date: May 31, 1967, 9:30 a.m. UTC

Rocket: Thor SLV-2 Agena D

Launch pad: Space Launch Complex 2W

Location: Vandenberg SFB, CA, USA

...

Latest news about this satellite

There are no fresh news available about this satellite. Check back as we update our databases every day.


Newsletter sign-up

Weekly statistics, charts and insights to help you stay on top of the space industry.